Regional Weather Roundup
Issued by NWS

Home | Current Version | Previous Version | Graphics & Text | Print | Product List | Glossary On
Versions: 1 2 3 4 5 6 7 8 9 10 11 12 13 14 15 16 17 18 19 20 21 22 23 24 25 26 27 28 29 30 31 32 33 34 35 36 37 38 39 40 41 42 43 44 45 46 47 48 49 50
000
ASUS43 KDTX 051410
RWRMI
MICHIGAN HOURLY REGIONAL WEATHER ROUNDUP
NATIONAL WEATHER SERVICE DETROIT/PONTIAC MI
900 AM EST THU MAR 05 2015

NOTE: "FAIR" INDICATES FEW OR NO CLOUDS BELOW 12,000 FEET WITH NO
SIGNIFICANT WEATHER AND/OR OBSTRUCTION TO VISIBILITY.

MIZ047>049-052>055-059>063-066>070-074>076-081>083-051500-
SOUTHEAST LOWER MICHIGAN

CITY           SKY/WX    TMP DP  RH WIND       PRES   REMARKS
ADRIAN         MOSUNNY    9   0  67 NE9       30.36R
ALMA           MOSUNNY    0  -6  76 W3        30.40R
ANN ARBOR      MOSUNNY   10  -1  61 NE9       30.37R
BAD AXE        PTSUNNY    3  -5  68 W8        30.37F
DETROIT CITY   PTSUNNY   12  -1  56 N5        30.39R
DETROIT        CLOUDY    11   0  61 N8        30.37S
FLINT          PTSUNNY    7  -8  50 NW5       30.39R
GROSSE ILE     MOSUNNY   10   0  61 NE8       30.36F
HILLSDALE      MOSUNNY    8  -1  66 NE5       30.32F
HOWELL         PTSUNNY    3  -4  72 CALM      30.37R

CITY           SKY/WX    TMP DP  RH WIND       PRES   REMARKS
JACKSON        PTSUNNY    7  -2  66 NE6       30.35R
LAMBERTVILLE   PTSUNNY   14   3  62 NE6       30.36F
LANSING        PTSUNNY    5  -2  72 CALM      30.40R
LAPEER         NOT AVBL
MASON          CLOUDY     3  -3  74 CALM      30.38R
MT. CLEMENS    PTSUNNY    8  -3  62 N7        30.38R
PONTIAC        CLOUDY     6  -4  63 N3        30.34S
PORT HOPE        N/A      8  -1  66 NW7       30.36R
PORT HURON     PTSUNNY    7  -4  61 W6        30.40R
TRI CITIES       N/A      4  -5  66 NW6       30.40F
YPSILANTI      MOSUNNY   12  -1  56 NE16      30.37R WCI  -5
$$
MIZ043>046-050>051-056>058-064>065-071>073-077>080-051500-
SOUTHWEST LOWER MICHIGAN

CITY           SKY/WX    TMP DP  RH WIND       PRES   REMARKS
BATTLE CREEK   PTSUNNY    8  -1  66 NE7       30.38R
BENTON HARBOR  PTSUNNY    9   4  80 E5        30.41R
BIG RAPIDS     CLOUDY    -6  -9  85 CALM      30.39R
COLDWATER      PTSUNNY    7  -2  67 NE5       30.36R
HOLLAND        PTSUNNY    7  -2  66 E7        30.42R
GRAND RAPIDS   MOSUNNY    5  -4  66 E6        30.40R
KALAMAZOO      PTSUNNY    8  -1  66 NE3       30.39R
MARSHALL       PTSUNNY    5  -2  73 NE5       30.36S
MUSKEGON       CLOUDY     6  -2  69 SE9       30.42R
$$
MIZ016>042-051500-
NORTHERN LOWER MICHIGAN

CITY           SKY/WX    TMP DP  RH WIND       PRES   REMARKS
ALPENA         SUNNY      1  -6  72 W3        30.37R
BEAVER ISLAND  SUNNY     -6 -10  84 CALM      30.38R
BELLAIRE       SUNNY    -10 -15  78 CALM      30.40S
CADILLAC       CLOUDY    -8 -14  75 SW3       30.32R
CHARLEVOIX     SUNNY     -7 -12  82 CALM      30.41R
FRANKFORT      CLOUDY     6   1  80 SE5       30.40R
GAYLORD        SUNNY     -9  -9 100 W3        30.29R
GRAYLING       SUNNY    -15 -20  76 CALM      30.32S HAZE
HARBOR SPRINGS SUNNY     -4  -8  82 CALM      30.37R
HOUGHTON LAKE  SUNNY     -4  -9  79 W6        30.33S
MANISTEE       CLOUDY     5  -2  72 S3        30.41R VSB 1
OSCODA         SUNNY      2  -6  68 NW9       30.37S
PELLSTON       SUNNY    -12 -14  90 W3        30.38R
TRAVERSE CITY  MOSUNNY   -4  -6  91 CALM      30.38R
$$
MIZ007>008-015-051500-
EASTERN UPPER MICHIGAN

CITY           SKY/WX    TMP DP  RH WIND       PRES   REMARKS
KINROSS        MOSUNNY   -4  -8  84 W3        30.35R
MACKINAC ISLAN SUNNY     -3  -8  80 CALM      30.36R
NEWBERRY       SUNNY     -8 -11  90 W5        30.35R
S. S. MARIE    MOSUNNY   -8 -10  91 CALM      30.37R
$$
MIZ004>006-011>014-085-051500-
CENTRAL UPPER MICHIGAN

CITY           SKY/WX    TMP DP  RH WIND       PRES   REMARKS
MANISTIQUE     MOSUNNY   -1  -7  76 W5        30.37R
ESCANABA       SUNNY     -4  -4 100 NW5       30.40R
MENOMINEE      SUNNY     -2 -11  65 NW5       30.41R
SAWYER-GWINN   SUNNY     -6 -11  77 CALM      30.31R
$$
MIZ001>003-009>011-084-051500-
WESTERN UPPER MICHIGAN

CITY           SKY/WX    TMP DP  RH WIND       PRES   REMARKS
IRON MOUNTAIN  SUNNY    -10 -15  78 CALM      30.34R
HOUGHTON       PTSUNNY   -3  -8  79 W8        30.31R HAZE
COPPER HARBOR    N/A      0  -9  65 W6        30.34R
IRONWOOD       SUNNY     -8 N/A N/A SW7       30.33R
$$

ABBREVIATIONS USED IN REMARKS
   TC - TEMPERATURE IN CELSIUS
  WCI - WIND CHILL INDEX
   HX - HEAT INDEX
  VSB - VISIBILITY



USA.gov is the U.S. government's official web portal to all federal, state and local government web resources and services.